Quad City International Airport
KMLI : now visible

Airfield :











YOU CAN JOIN US ON...

 
LOGIN :

Register | Disclaimer

   EN    FR    IT 

 









Legend :    VFR   Marginal VFR   IFR   Intensive IFR   Very Intensive IFR
Visi :
Ceiling :
>= 8 km
>= 3000ft
5 to 8 km
1000 to 3000 ft
1500m to 5 km
500 to 1000 ft
800 to 1500m
200 to 500 ft
< 800m
< 200 ft
Symbols :   Thunderstorms  Fog  Heavy snow  Heavy precipitations  Wind > 20 kt






- Airport Elevation : 590 ft
- IATA code : MLI


KMLI - Quad City International

CURRENT METAR :
  • 181952Z 29012G17KT 10SM FEW075 SCT095 19/02 A2988 RMK AO2 SLP117 T01890017

EXPIRED METARs :
  • 181852Z 28008KT 10SM BKN110 17/01 A2989 RMK AO2 SLP122 T01720006
  • 181752Z 30009KT 10SM SCT080 SCT110 17/M02 A2990 RMK AO2 SLP127 T01721017 10183 20056 58014

TAF KMLI
Valid from the 18 at 18:00 until the 19 at 18:00 UTC


181722Z 1818/1918 30007KT P6SM BKN090
FM181900 28010G16KT P6SM BKN080
FM190000 24007KT P6SM SCT100
FM191100 31010KT P6SM OVC035
PROB30 1914/1918 6SM -SHRA BKN020
KZAU FIR / North America



MET'MAP, your aeronautical weather chart ! - Copyright ORBIFLY December 2007 - Disclaimer

ORBIFLY MET'MAP TEAM :

Programming & Development : Alexandra Zaïnal
Concept & original design : Baudouin d'Aumeries
Assistance for programming : Marc-Olivier Méhu
Technical & hardware support : Manuel Goepfert

Contact : metmap@orbifly.com




SOURCES & CREDITS :

   NOAA       Earth
Advisory